Tracking 29967 objects as of 5-Dec-2024
HD Live streaming from Space Station
objects crossing your sky now

ONEWEB-0020

Track ONEWEB-0020 now!
10-day predictions
ONEWEB-0020 is classified as:


NORAD ID: 45133
Int'l Code: 2019-071K
Perigee: 1,228.0 km
Apogee: 1,229.9 km
Inclination: 87.9 °
Period: 109.9 minutes
Semi major axis: 7599 km
RCS: Unknown
Launch date: November 2, 2019
Source: United States (US)
Launch site: WALLOPS ISLAND (WLPIS)
Your satellite tracking list
Your tracking list is empty




NASA's NSSDC Master Catalog

Two Line Element Set (TLE):
1 45133U 20008C   24339.88025686 -.00002808  00000-0 -80854-2 0  9997
2 45133  87.8886 147.6487 0001268 100.3225 259.8045 13.10349633235095
Source of the keplerian elements: AFSPC